N689ME KDSM-KTEB

Flight info

Callsign N689ME
Flight time N/A
Altitude 45000
Route IOW DPA DXO JHW LVZ5
Aircraft C750/M-SBDE3FGHRWXY/S

Departure

Time 2026-04-23 21:07
Airport Des Moines International Airport (KDSM)

Arrival

Time N/A
Airport Teterboro Airport (KTEB)
Time Latitude Longitude Altitude Speed Heading
2026-04-23 21:05 41.54542 -93.67417 922 ft 0 kts 132°
2026-04-23 21:06 41.54442 -93.67274 916 ft 65 kts 134°
2026-04-23 21:07 41.53958 -93.66565 915 ft 135 kts 132°
2026-04-23 21:07 41.53277 -93.65558 1260 ft 149 kts 138°
2026-04-23 21:07 41.52827 -93.64336 1937 ft 153 kts 114°
2026-04-23 21:07 41.52781 -93.62763 2117 ft 193 kts 83°
2026-04-23 21:08 41.53210 -93.60955 2577 ft 212 kts 79°
2026-04-23 21:08 41.53466 -93.58970 2930 ft 226 kts 102°
2026-04-23 21:08 41.53193 -93.56798 3194 ft 251 kts 105°
2026-04-23 21:08 41.53070 -93.54359 3758 ft 271 kts 96°
2026-04-23 21:09 41.53140 -93.51807 4578 ft 279 kts 95°
2026-04-23 21:09 41.53171 -93.49163 5195 ft 292 kts 98°
2026-04-23 21:09 41.53140 -93.46474 6132 ft 289 kts 98°
2026-04-23 21:09 41.53179 -93.43725 6770 ft 303 kts 96°
2026-04-23 21:10 41.53191 -93.40940 7566 ft 303 kts 97°
2026-04-23 21:10 41.53187 -93.38105 8508 ft 308 kts 96°
2026-04-23 21:10 41.53208 -93.35227 9470 ft 311 kts 97°
2026-04-23 21:10 41.53213 -93.32314 10037 ft 323 kts 97°
2026-04-23 21:11 41.53184 -93.29193 10079 ft 350 kts 97°
2026-04-23 21:11 41.53170 -93.25820 10116 ft 375 kts 96°
2026-04-23 21:11 41.53186 -93.22321 10715 ft 377 kts 95°
2026-04-23 21:11 41.53193 -93.18807 11291 ft 381 kts 96°
2026-04-23 21:12 41.53175 -93.15232 11836 ft 386 kts 96°
2026-04-23 21:12 41.53160 -93.11635 12460 ft 390 kts 96°
2026-04-23 21:12 41.53158 -93.07995 13023 ft 394 kts 96°
2026-04-23 21:12 41.53155 -93.04317 13577 ft 398 kts 96°
2026-04-23 21:13 41.53144 -93.00630 14194 ft 399 kts 96°
2026-04-23 21:13 41.53128 -92.96911 14709 ft 402 kts 95°
2026-04-23 21:13 41.53117 -92.93216 15245 ft 405 kts 95°
2026-04-23 21:13 41.53105 -92.89436 15774 ft 409 kts 95°
2026-04-23 21:14 41.53089 -92.85616 16359 ft 412 kts 95°
2026-04-23 21:14 41.53070 -92.81772 16955 ft 416 kts 95°
2026-04-23 21:14 41.53053 -92.77889 17566 ft 421 kts 95°
2026-04-23 21:14 41.53034 -92.73968 18133 ft 424 kts 95°
2026-04-23 21:15 41.53013 -92.70016 18674 ft 427 kts 94°
2026-04-23 21:15 41.52995 -92.66047 19233 ft 429 kts 94°
2026-04-23 21:15 41.52972 -92.62062 19829 ft 431 kts 94°
2026-04-23 21:15 41.52943 -92.58040 20371 ft 434 kts 94°
2026-04-23 21:16 41.52905 -92.53993 20916 ft 438 kts 94°
2026-04-23 21:16 41.52876 -92.49910 21454 ft 442 kts 94°
2026-04-23 21:16 41.52853 -92.45791 22000 ft 446 kts 94°
2026-04-23 21:16 41.52822 -92.41639 22558 ft 450 kts 94°
2026-04-23 21:17 41.52785 -92.37442 23101 ft 453 kts 94°
2026-04-23 21:17 41.52747 -92.33220 23565 ft 457 kts 94°
2026-04-23 21:17 41.52711 -92.29026 24026 ft 459 kts 94°
2026-04-23 21:17 41.52674 -92.24760 24543 ft 460 kts 94°
2026-04-23 21:18 41.52631 -92.20463 24987 ft 464 kts 94°
2026-04-23 21:18 41.52586 -92.16154 25431 ft 467 kts 94°
2026-04-23 21:18 41.52540 -92.11806 25877 ft 470 kts 93°
2026-04-23 21:18 41.52497 -92.07420 26312 ft 473 kts 94°
2026-04-23 21:19 41.52449 -92.03015 26743 ft 476 kts 94°
2026-04-23 21:19 41.52394 -91.98581 27174 ft 479 kts 94°
2026-04-23 21:19 41.52338 -91.94109 27614 ft 483 kts 94°
2026-04-23 21:19 41.52286 -91.89617 28047 ft 485 kts 94°
2026-04-23 21:20 41.52231 -91.85112 28566 ft 486 kts 94°
2026-04-23 21:20 41.52169 -91.80582 28968 ft 490 kts 94°
2026-04-23 21:20 41.52106 -91.76023 29375 ft 493 kts 94°
2026-04-23 21:20 41.52044 -91.71485 29774 ft 496 kts 94°
2026-04-23 21:21 41.51978 -91.66809 30135 ft 499 kts 94°
2026-04-23 21:21 41.51955 -91.62179 30460 ft 503 kts 91°
2026-04-23 21:21 41.52373 -91.57579 30821 ft 508 kts 83°
2026-04-23 21:21 41.52985 -91.52954 31400 ft 505 kts 83°
2026-04-23 21:22 41.53568 -91.48349 31958 ft 502 kts 83°
2026-04-23 21:22 41.54137 -91.43757 32457 ft 501 kts 83°
2026-04-23 21:22 41.54721 -91.39162 32947 ft 501 kts 83°
2026-04-23 21:22 41.55310 -91.34581 33438 ft 500 kts 83°
2026-04-23 21:23 41.55888 -91.30001 33896 ft 500 kts 83°
2026-04-23 21:23 41.56458 -91.25416 34308 ft 500 kts 83°
2026-04-23 21:23 41.57031 -91.20827 34761 ft 499 kts 83°
2026-04-23 21:23 41.57605 -91.16256 35225 ft 499 kts 83°
2026-04-23 21:24 41.58174 -91.11693 35721 ft 497 kts 83°
2026-04-23 21:24 41.58736 -91.07146 36252 ft 494 kts 83°
2026-04-23 21:24 41.59293 -91.02620 36699 ft 494 kts 83°
2026-04-23 21:24 41.59850 -90.98096 37140 ft 493 kts 83°
2026-04-23 21:25 41.60399 -90.93635 37570 ft 493 kts 83°
2026-04-23 21:25 41.60952 -90.89107 37968 ft 493 kts 83°
2026-04-23 21:25 41.61502 -90.84591 38372 ft 492 kts 83°
2026-04-23 21:25 41.62050 -90.80078 38702 ft 492 kts 83°
2026-04-23 21:26 41.62598 -90.75555 38999 ft 492 kts 82°
2026-04-23 21:26 41.63142 -90.71043 39386 ft 490 kts 82°
2026-04-23 21:26 41.63682 -90.66551 39711 ft 489 kts 82°
2026-04-23 21:26 41.64220 -90.62058 40021 ft 490 kts 82°
2026-04-23 21:27 41.64750 -90.57621 40322 ft 490 kts 82°
2026-04-23 21:27 41.65286 -90.53116 40626 ft 490 kts 82°
2026-04-23 21:27 41.65820 -90.48616 40928 ft 490 kts 82°
2026-04-23 21:27 41.66353 -90.44105 41235 ft 490 kts 82°
2026-04-23 21:28 41.66883 -90.39601 41534 ft 490 kts 82°
2026-04-23 21:28 41.67412 -90.35095 41831 ft 490 kts 81°
2026-04-23 21:28 41.67940 -90.30580 42129 ft 490 kts 81°
2026-04-23 21:28 41.68466 -90.26065 42422 ft 490 kts 81°
2026-04-23 21:29 41.68988 -90.21567 42700 ft 490 kts 81°
2026-04-23 21:29 41.69505 -90.17107 42983 ft 490 kts 81°
2026-04-23 21:29 41.70025 -90.12596 43265 ft 491 kts 81°
2026-04-23 21:29 41.70543 -90.08083 43541 ft 491 kts 81°
2026-04-23 21:30 41.71061 -90.03559 43806 ft 491 kts 81°
2026-04-23 21:30 41.71575 -89.99052 44079 ft 491 kts 81°
2026-04-23 21:30 41.72090 -89.94526 44377 ft 490 kts 81°
2026-04-23 21:30 41.72600 -89.90023 44602 ft 490 kts 81°
2026-04-23 21:31 41.73109 -89.85506 44777 ft 492 kts 81°
2026-04-23 21:31 41.73449 -89.82494 44762 ft 495 kts 81°
2026-04-23 21:31 41.74482 -89.73265 44775 ft 505 kts 81°
2026-04-23 21:32 41.75520 -89.63921 44771 ft 514 kts 81°
2026-04-23 21:32 41.76574 -89.54363 44765 ft 523 kts 81°
2026-04-23 21:33 41.77638 -89.44639 44773 ft 531 kts 81°
2026-04-23 21:33 41.78702 -89.34827 44791 ft 531 kts 81°
2026-04-23 21:34 41.79757 -89.25025 44789 ft 531 kts 81°
2026-04-23 21:34 41.80803 -89.15231 44788 ft 530 kts 81°
2026-04-23 21:35 41.81838 -89.05448 44799 ft 530 kts 81°
2026-04-23 21:35 41.82865 -88.95667 44804 ft 530 kts 81°
2026-04-23 21:36 41.84390 -88.80987 44815 ft 529 kts 82°
2026-04-23 21:37 41.85387 -88.71281 44812 ft 528 kts 82°
2026-04-23 21:37 41.86382 -88.61512 44815 ft 529 kts 82°
2026-04-23 21:38 41.87370 -88.51738 44815 ft 529 kts 82°
2026-04-23 21:38 41.88350 -88.41951 44818 ft 527 kts 82°
2026-04-23 21:39 41.89310 -88.32219 44824 ft 526 kts 83°
2026-04-23 21:39 41.90108 -88.22448 44823 ft 526 kts 84°
2026-04-23 21:40 41.90962 -88.12688 44825 ft 526 kts 83°
2026-04-23 21:40 41.91772 -88.02987 44826 ft 524 kts 84°
2026-04-23 21:41 41.92584 -87.93269 44823 ft 524 kts 83°
2026-04-23 21:41 41.93392 -87.83524 44825 ft 524 kts 84°
2026-04-23 21:42 41.94186 -87.73786 44829 ft 525 kts 83°
2026-04-23 21:42 41.94977 -87.64046 44828 ft 523 kts 84°
2026-04-23 21:43 41.95751 -87.54342 44821 ft 523 kts 84°
2026-04-23 21:43 41.96519 -87.44665 44827 ft 524 kts 84°
2026-04-23 21:44 41.97281 -87.34935 44829 ft 523 kts 84°
2026-04-23 21:44 41.98035 -87.25206 44824 ft 522 kts 84°
2026-04-23 21:45 41.98780 -87.15478 44821 ft 523 kts 84°
2026-04-23 21:45 41.99517 -87.05751 44824 ft 522 kts 84°
2026-04-23 21:46 42.00245 -86.96030 44828 ft 523 kts 84°
2026-04-23 21:46 42.00965 -86.86310 44839 ft 522 kts 84°
2026-04-23 21:47 42.01672 -86.76642 44853 ft 522 kts 84°
2026-04-23 21:47 42.02376 -86.66913 44858 ft 523 kts 84°
2026-04-23 21:48 42.03071 -86.57183 44861 ft 523 kts 84°
2026-04-23 21:48 42.03758 -86.47451 44860 ft 522 kts 84°
2026-04-23 21:49 42.04437 -86.37716 44863 ft 522 kts 84°
2026-04-23 21:49 42.05107 -86.27988 44865 ft 522 kts 84°
2026-04-23 21:50 42.05769 -86.18258 44874 ft 522 kts 84°
2026-04-23 21:50 42.06418 -86.08595 44872 ft 522 kts 84°
2026-04-23 21:51 42.07063 -85.98867 44878 ft 522 kts 84°
2026-04-23 21:51 42.07699 -85.89141 44879 ft 522 kts 84°
2026-04-23 21:52 42.08329 -85.79401 44881 ft 522 kts 84°
2026-04-23 21:52 42.08949 -85.69666 44883 ft 522 kts 84°
2026-04-23 21:53 42.09561 -85.59931 44887 ft 522 kts 84°
2026-04-23 21:53 42.10165 -85.50192 44882 ft 522 kts 84°
2026-04-23 21:54 42.10761 -85.40453 44889 ft 522 kts 84°
2026-04-23 21:54 42.11348 -85.30714 44897 ft 522 kts 84°
2026-04-23 21:55 42.11928 -85.20960 44895 ft 522 kts 84°
2026-04-23 21:55 42.12495 -85.11277 44895 ft 522 kts 84°
2026-04-23 21:56 42.13059 -85.01520 44898 ft 521 kts 84°
2026-04-23 21:56 42.13614 -84.91760 44899 ft 521 kts 84°
2026-04-23 21:57 42.14160 -84.82017 44899 ft 521 kts 85°
2026-04-23 21:57 42.14694 -84.72329 44907 ft 521 kts 85°
2026-04-23 21:58 42.15223 -84.62590 44909 ft 520 kts 85°
2026-04-23 21:58 42.15743 -84.52858 44905 ft 520 kts 85°
2026-04-23 21:59 42.16255 -84.43140 44905 ft 520 kts 85°
2026-04-23 21:59 42.16759 -84.33398 44903 ft 520 kts 85°
2026-04-23 22:00 42.17494 -84.18891 44908 ft 518 kts 85°
2026-04-23 22:00 42.17976 -84.09191 44909 ft 519 kts 85°
2026-04-23 22:01 42.18449 -83.99489 44906 ft 518 kts 85°
2026-04-23 22:01 42.18914 -83.89793 44900 ft 518 kts 85°
2026-04-23 22:02 42.19370 -83.80097 44886 ft 517 kts 85°
2026-04-23 22:02 42.19819 -83.70398 44888 ft 518 kts 85°
2026-04-23 22:03 42.20259 -83.60693 44897 ft 518 kts 86°
2026-04-23 22:03 42.20689 -83.51064 44897 ft 518 kts 86°
2026-04-23 22:04 42.21112 -83.41377 44906 ft 518 kts 86°
2026-04-23 22:04 42.21384 -83.31669 44910 ft 519 kts 88°
2026-04-23 22:05 42.21491 -83.21902 44907 ft 519 kts 88°
2026-04-23 22:05 42.21604 -83.12148 44912 ft 521 kts 88°
2026-04-23 22:06 42.21539 -83.07378 45740 ft 492 kts 91°
2026-04-23 22:06 42.21471 -83.02818 46051 ft 489 kts 90°
2026-04-23 22:06 42.21437 -82.98133 45177 ft 512 kts 88°
2026-04-23 22:06 42.21603 -82.93320 44998 ft 514 kts 85°
2026-04-23 22:07 42.21989 -82.83661 44920 ft 517 kts 89°
2026-04-23 22:07 42.21860 -82.73945 44926 ft 520 kts 89°
2026-04-23 22:08 42.22052 -82.64183 44933 ft 520 kts 88°
2026-04-23 22:08 42.22033 -82.54499 44942 ft 520 kts 89°
2026-04-23 22:09 42.22127 -82.44738 44946 ft 520 kts 88°
2026-04-23 22:09 42.22146 -82.34989 44945 ft 519 kts 89°
2026-04-23 22:10 42.22188 -82.25263 44938 ft 519 kts 88°
2026-04-23 22:10 42.22212 -82.15525 44938 ft 519 kts 89°
2026-04-23 22:11 42.22227 -82.05780 44923 ft 519 kts 89°
2026-04-23 22:11 42.22238 -81.96058 44926 ft 519 kts 89°
2026-04-23 22:12 42.22236 -81.86312 44932 ft 519 kts 89°
2026-04-23 22:12 42.22230 -81.76579 44941 ft 519 kts 89°
2026-04-23 22:13 42.22212 -81.66834 44946 ft 519 kts 89°
2026-04-23 22:13 42.22189 -81.57163 44963 ft 521 kts 89°
2026-04-23 22:14 42.22155 -81.47304 44966 ft 529 kts 89°
2026-04-23 22:14 42.22113 -81.37308 44964 ft 536 kts 89°
2026-04-23 22:15 42.22062 -81.27215 44979 ft 538 kts 89°
2026-04-23 22:15 42.22001 -81.17205 44959 ft 536 kts 89°
2026-04-23 22:16 42.21933 -81.07131 44959 ft 537 kts 89°
2026-04-23 22:16 42.21855 -80.97045 44954 ft 537 kts 89°
2026-04-23 22:17 42.21769 -80.86964 44952 ft 539 kts 89°
2026-04-23 22:17 42.21673 -80.76830 44957 ft 539 kts 89°
2026-04-23 22:18 42.21569 -80.66773 44961 ft 539 kts 89°
2026-04-23 22:18 42.21457 -80.56647 44966 ft 539 kts 89°
2026-04-23 22:19 42.21334 -80.46516 44960 ft 543 kts 89°
2026-04-23 22:19 42.21225 -80.38017 44970 ft 545 kts 89°
2026-04-23 22:20 42.21083 -80.27794 44976 ft 545 kts 89°
2026-04-23 22:20 42.20933 -80.17554 44976 ft 545 kts 89°
2026-04-23 22:21 42.20775 -80.07286 44973 ft 549 kts 89°
2026-04-23 22:21 42.20604 -79.97001 44974 ft 548 kts 89°
2026-04-23 22:22 42.20430 -79.86783 44973 ft 548 kts 89°
2026-04-23 22:22 42.20240 -79.76494 44969 ft 550 kts 89°
2026-04-23 22:23 42.20045 -79.66187 44970 ft 549 kts 89°
2026-04-23 22:23 42.19839 -79.55875 44971 ft 550 kts 89°
2026-04-23 22:24 42.19623 -79.45561 44972 ft 550 kts 89°
2026-04-23 22:24 42.19400 -79.35256 44972 ft 549 kts 89°
2026-04-23 22:25 42.19168 -79.25017 44971 ft 549 kts 89°
2026-04-23 22:25 42.18924 -79.14719 44971 ft 549 kts 89°
2026-04-23 22:26 42.18673 -79.04409 44991 ft 549 kts 89°
2026-04-23 22:26 42.18411 -78.94120 44974 ft 549 kts 89°
2026-04-23 22:27 42.18143 -78.83874 44974 ft 549 kts 89°
2026-04-23 22:27 42.17852 -78.73578 44969 ft 550 kts 90°
2026-04-23 22:28 42.16354 -78.63424 44963 ft 557 kts 107°
2026-04-23 22:28 42.13412 -78.53742 44977 ft 559 kts 112°
2026-04-23 22:29 42.10547 -78.44030 44974 ft 557 kts 107°
2026-04-23 22:29 42.07832 -78.34235 44971 ft 558 kts 111°
2026-04-23 22:30 42.04934 -78.24542 44972 ft 558 kts 108°
2026-04-23 22:30 42.02190 -78.14784 44971 ft 558 kts 110°
2026-04-23 22:31 41.99304 -78.05099 44974 ft 558 kts 109°
2026-04-23 22:31 41.96509 -77.95360 44977 ft 558 kts 109°
2026-04-23 22:32 41.93638 -77.85685 44973 ft 557 kts 109°
2026-04-23 22:32 41.90818 -77.76032 44967 ft 558 kts 109°
2026-04-23 22:33 41.87951 -77.66356 44669 ft 563 kts 110°
2026-04-23 22:33 41.86502 -77.61473 43738 ft 557 kts 109°
2026-04-23 22:33 41.85081 -77.56677 42847 ft 546 kts 109°
2026-04-23 22:34 41.83688 -77.51987 41984 ft 536 kts 109°
2026-04-23 22:34 41.82316 -77.47385 41146 ft 527 kts 109°
2026-04-23 22:34 41.80966 -77.42865 40338 ft 518 kts 109°
2026-04-23 22:34 41.79635 -77.38412 39562 ft 509 kts 108°
2026-04-23 22:35 41.78327 -77.34043 38820 ft 501 kts 108°
2026-04-23 22:35 41.77040 -77.29748 37983 ft 494 kts 108°
2026-04-23 22:35 41.75767 -77.25509 37132 ft 487 kts 108°
2026-04-23 22:35 41.74508 -77.21327 36341 ft 481 kts 108°
2026-04-23 22:36 41.73262 -77.17195 35546 ft 476 kts 108°
2026-04-23 22:36 41.72042 -77.13148 34929 ft 467 kts 108°
2026-04-23 22:36 41.70853 -77.09230 34923 ft 444 kts 108°
2026-04-23 22:36 41.69719 -77.05497 34911 ft 421 kts 108°
2026-04-23 22:37 41.68645 -77.01945 34913 ft 401 kts 107°
2026-04-23 22:37 41.67622 -76.98568 34903 ft 383 kts 107°
2026-04-23 22:37 41.66653 -76.95382 34894 ft 365 kts 107°
2026-04-23 22:37 41.65716 -76.92311 34884 ft 349 kts 107°